TimeEDT,TemperatureF,Dew PointF,Humidity,Sea Level PressureIn,VisibilityMPH,Wind Direction,Wind SpeedMPH,Gust SpeedMPH,PrecipitationIn,Events,Conditions,WindDirDegrees,DateUTC
12:52 AM,66.0,59.0,78,29.64,10.0,WSW,5.8,-,N/A,,Clear,250,2013-06-29 04:52:00
1:52 AM,66.0,59.0,78,29.62,10.0,West,3.5,-,N/A,,Partly Cloudy,270,2013-06-29 05:52:00
2:21 AM,64.4,60.8,88,29.74,10.0,SW,4.6,-,N/A,,Mostly Cloudy,230,2013-06-29 06:21:00
2:52 AM,66.0,60.1,81,29.61,10.0,Calm,Calm,-,N/A,,Overcast,0,2013-06-29 06:52:00
3:52 AM,66.9,60.1,79,29.60,10.0,West,4.6,-,N/A,,Mostly Cloudy,260,2013-06-29 07:52:00
4:08 AM,64.4,59.0,83,29.72,10.0,WSW,4.6,-,N/A,,Scattered Clouds,240,2013-06-29 08:08:00
4:52 AM,64.9,60.1,84,29.60,10.0,WSW,5.8,-,N/A,,Partly Cloudy,250,2013-06-29 08:52:00
5:52 AM,64.0,59.0,84,29.62,10.0,WSW,3.5,-,N/A,,Clear,240,2013-06-29 09:52:00
6:52 AM,64.9,59.0,81,29.63,10.0,WSW,4.6,-,N/A,,Clear,250,2013-06-29 10:52:00
7:52 AM,66.9,60.1,79,29.64,10.0,WSW,3.5,-,N/A,,Overcast,250,2013-06-29 11:52:00
8:52 AM,70.0,60.1,71,29.65,10.0,West,6.9,-,N/A,,Mostly Cloudy,270,2013-06-29 12:52:00
9:52 AM,73.0,59.0,61,29.65,10.0,West,9.2,-,N/A,,Clear,260,2013-06-29 13:52:00
10:52 AM,75.9,59.0,56,29.65,10.0,West,9.2,-,N/A,,Scattered Clouds,280,2013-06-29 14:52:00
11:52 AM,78.1,57.0,48,29.65,10.0,West,9.2,19.6,N/A,,Scattered Clouds,260,2013-06-29 15:52:00
12:52 PM,78.1,57.0,48,29.65,10.0,West,10.4,17.3,N/A,,Scattered Clouds,280,2013-06-29 16:52:00
1:52 PM,79.0,57.9,48,29.65,10.0,WSW,9.2,-,N/A,,Partly Cloudy,250,2013-06-29 17:52:00
2:52 PM,77.0,57.0,50,29.65,10.0,WSW,9.2,-,N/A,,Overcast,240,2013-06-29 18:52:00
3:52 PM,80.1,57.9,47,29.63,10.0,SW,10.4,-,N/A,,Mostly Cloudy,220,2013-06-29 19:52:00
4:52 PM,79.0,57.0,47,29.64,10.0,WSW,9.2,-,N/A,,Mostly Cloudy,250,2013-06-29 20:52:00
5:52 PM,79.0,57.0,47,29.64,10.0,WNW,8.1,-,N/A,,Scattered Clouds,290,2013-06-29 21:52:00
6:52 PM,79.0,57.0,47,29.65,10.0,WSW,5.8,-,N/A,,Scattered Clouds,250,2013-06-29 22:52:00
7:52 PM,75.9,57.0,52,29.67,10.0,West,8.1,-,N/A,,Partly Cloudy,260,2013-06-29 23:52:00
8:52 PM,72.0,57.0,59,29.68,10.0,SW,3.5,-,N/A,,Clear,230,2013-06-30 00:52:00
9:52 PM,71.1,55.9,59,29.69,10.0,WSW,3.5,-,N/A,,Clear,240,2013-06-30 01:52:00
10:52 PM,70.0,55.9,61,29.70,10.0,Calm,Calm,-,N/A,,Scattered Clouds,0,2013-06-30 02:52:00
11:52 PM,70.0,55.9,61,29.69,10.0,South,3.5,-,N/A,,Clear,190,2013-06-30 03:52:00